www.pogodaiklimat.ru
Время
(UTC), дата
22:18 30.12
22:25 30.12
22:41 30.12
22:53 30.12
23:26 30.12
23:28 30.12
23:42 30.12
23:53 30.12
00:16 30.12
00:25 30.12
00:40 30.12
00:53 30.12
01:10 30.12
01:29 30.12
01:49 30.12
01:53 30.12
02:02 30.12
02:19 30.12
02:53 30.12
03:08 30.12
03:44 30.12
03:53 30.12
04:15 30.12
04:23 30.12
04:53 30.12
05:04 31.12
05:34 31.12
05:51 31.12
05:53 31.12
06:53 31.12
07:53 31.12
08:53 31.12
09:53 31.12
10:53 31.12
11:53 31.12
12:18 31.12
12:27 31.12
12:53 31.12
13:53 31.12
14:53 31.12
15:53 31.12
16:16 31.12
16:53 31.12
17:53 31.12
18:53 31.12
19:53 31.12
20:53 31.12
21:53 31.12
Ветер
(напр.,м/с)
Видим. Явления Облачность Т
(С)
Тd
(С)
f
(%)
Тe
(С)
Тes
(С)
Комфортность P
(гПа)
Po
(гПа)
Тmin
(С)
Tmax
(С)
R
(мм)
R24
(мм)
S
(см)
ЮЗ 8
{13}
3 км слабый снег, дымка 10/10 210 м 0.0 -1.7 88 -8 -8 965.9
ЮЗ 6
{13}
2 км слабый снег, дымка 10/10 270 м 0.0 -1.7 88 -7 -7 965.9
ЮЗ 8
{12}
3 км слабый снег, дымка 10/10 210 м 0.0 -1.7 88 -8 -8 965.9
ЮЗ 6
{11}
2 км слабый снег, дымка 10/10 240 м 0.0 -1.7 88 -7 -7 991.2 965.9 0.0 +1.1
ЮЗ 6
{9}
2 км слабый снег, дымка 10/10 300 м 0.0 -1.7 88 -7 -7 966.2
ЮЗ 6
{10}
1 км слабый снег, дымка 10/10 300 м 0.0 -1.7 88 -7 -7 966.2
ЮЗ 6
{9}
2 км слабый снег, дымка 10/10 300 м 0.0 -1.7 88 -7 -7 966.2
ЮЗ 5 2 км слабый снег, дымка 10/10 210 м 0.0 -1.7 88 -7 -7 991.4 966.2
ЮЗ 5 1 км слабый снег, дымка 10/10 150 м 0.0 -1.7 88 -7 -7 966.2
З 4 2 км слабый снег, дымка 10/10 180 м 0.0 -1.7 88 -6 -6 966.2
З 4 1 км слабый снег, дымка 10/10 120 м 0.0 -1.7 88 -6 -6 966.2
СЗ 6
{10}
2 км слабый снег, дымка 10/10 210 м 0.0 -1.7 88 -7 -7 991.8 966.5
СЗ 7 2 км слабый снег, дымка 10/10 210 м -0.6 -2.2 89 -8 -8 966.5
СЗ 6 3 км слабый снег, дымка 10/10 600 м -0.6 -2.8 85 -8 -8 966.9
СЗ 5
{10}
3 км слабый снег, дымка 10/10 270 м -1.0 -3.0 86 -8 -8 966.9
СЗ 6 3 км слабый снег, дымка 10/10 270 м -1.1 -3.3 85 -8 -8 992.2 966.9
СЗ 6 5 км слабый снег, дымка 10/10 720 м -1.1 -3.3 85 -9 -9 966.9
СЗ 6 10 км слабый снег, дымка 10/10 1020 м -1.7 -3.9 85 -9 -9 967.2
СЗ 6 4 км слабый снег, дымка 10/10 540 м -1.7 -3.9 85 -9 -9 992.4 967.2
СЗ 4 6 км слабый снег 10/10 300 м -1.7 -4.4 82 -8 -8 967.2
З 7
{9}
4 км слабый снег, дымка 10/10 840 м -2.2 -4.4 85 -10 -10 967.5
З 7 3 км слабый снег 10/10 780 м -2.2 -5.0 81 -10 -10 992.9 967.5
З 6 5 км слабый снег 10/10 870 м -2.2 -5.0 81 -10 -10 967.5
З 7 8 км слабый снег 10/10 1050 м -2.2 -5.0 81 -10 -10 967.5
З 7 3 км слабый снег, дымка 10/10 1020 м -2.8 -5.0 85 -11 -11 993.1 967.8 -2.8 0.0
З 7 2 км слабый снег, дымка 10/10 720 м -2.8 -5.0 85 -11 -11 967.8
З 6 3 км слабый снег, дымка 10/10 720 м -2.8 -5.0 85 -11 -11 968.2
З 7 5 км слабый снег, дымка 10/10 420 м -3.0 -5.0 86 -11 -11 968.2
З 7 6 км слабый снег, дымка 10/10 420 м -2.8 -5.0 85 -11 -11 993.7 968.2
З 7 16 км 10/8 600 м
[средняя]
-2.8 -6.1 78 -11 -11 994.8 969.2
З 7 16 км 10/0 2550 м
[средняя]
-3.3 -6.1 81 -12 -12 995.7 970.2
З 9 16 км 10/0 2400 м
[средняя]
-3.3 -6.7 77 -12 -12 996.8 971.1
З 7 14 км 10/0 2400 м
[средняя]
-3.3 -7.2 74 -12 -12 997.8 972.1
З 6 16 км 10/0 2100 м
[средняя]
-3.3 -6.7 77 -11 -11 999.0 973.5 -3.3 -2.8 7.6
З 5 16 км 10/10 960 м -3.3 -6.7 77 -11 -11 1000.1 974.5
З 6 16 км 10/10 870 м -3.3 -7.2 74 -11 -11 974.8
З 6
{10}
16 км 10/10 810 м -3.3 -7.2 74 -11 -11 974.8
З 7 16 км 10/10 960 м -3.3 -7.2 74 -11 -11 1000.9 975.1
З 6 16 км 10/10 930 м -3.3 -6.7 77 -11 -11 1002.1 976.4
З 6 16 км 10/10 930 м -2.8 -6.1 78 -11 -11 1003.1 977.4
З 6 13 км слабый снег 10/10 570 м -2.8 -5.6 81 -10 -10 1003.3 977.4
З 6 14 км 10/10 570 м -2.2 -5.6 77 -10 -10 977.4
З 6 16 км 10/10 720 м -2.2 -6.1 75 -10 -10 1003.1 977.4 -3.3 -2.2
З 7
{11}
16 км 10/10 570 м -2.2 -6.7 71 -10 -10 1003.6 977.8
З 6 16 км 10/10 660 м -2.2 -6.7 71 -10 -10 1003.6 977.8
З 6 16 км 10/10 660 м -2.2 -7.2 69 -9 -9 1004.6 978.7
З 6 16 км 10/10 540 м -3.3 -6.7 77 -11 -11 1005.6 979.7
З 7 16 км 10/10 570 м -3.3 -7.8 71 -11 -11 1006.5 980.4
Местоположение метеостанции Austin Straubel International Airport: широта 44.4794 долгота -88.1367 высота над уровнем моря 211 м.
В архиве по умолчанию представлена погода в Грин-Бее за последние 1-2 суток. Обновление информации о фактической погоде в базе происходит ежечасно! Архивные данные за месяц целиком и за предыдущие месяцы Вы можете получить, выбрав интересующий диапазон дат из раскрывающегося списка и нажав кнопку "Ввод!".
Внимание! Архив погоды МЕТАР в базе сайта по станциям, не включенным в климатический монитор, хранится не более 60 дней. Нет смысла пытаться выбрать более раннюю дату.
*Определитесь, кто Вы:
Внимание! Время в таблицах - всемирное. Для получения местного времени необходимо прибавить поправку, которая равна ч.
Смотрите также архив погоды в соседних городах и на ближайших метеорологических станциях:
Партнеры нашего сайта:      
Пояснения к столбцам:
  • Ветер - указаны скорость ветра в м/с - средняя за 10 мин, порывы в срок и между сроками (в фигурных скобках) и направление, откуда дует ветер: С - северный,
  • СВ - северо-восточный, В - восточный, ЮВ - юго-восточный, Ю - южный, ЮЗ - юго-западный, З - западный, СЗ - северо-западный.
  • Видимость - горизонтальная дальность видимости в метрах или километрах. При видимости от 1 до 10 км при отсутствии осадков обычно наблюдается дымка, при ухудшении видимости до 1 км и менее - туман. В сухую погоду видимость может ухудшаться дымом, пылью или мглою.
  • Явления - указаны атмосферные явления, наблюдавшиеся в срок или в последний час перед сроком; фигурными скобками обозначены явления, наблюдавшиеся между сроками (за 1-3 часа до срока); квадратными скобками обозначены град или гололедные отложения с указанием их диаметра в мм.
  • Облачность - указаны через наклонную черту общая и нижняя облачность в баллах и высота нижней границы облаков в метрах; квадратными скобками обозначены формы облаков: Ci - перистые, Cs - перисто-слоистые, Cc - перисто-кучевые, Ac - высококучевые, As - высокослоистые, Sc - слоисто-кучевые, Ns - слоисто-дождевые, Cu - кучевые, Cb - кучево-дождевые. Подробнее классификацию облаков см. в Атласе облаков (PDF).
  • T - Температура воздуха - температура, измеренная на высоте 2 м над землей.
  • Td - Температура точки росы - температура, при понижении до которой содержащийся в воздухе водяной пар достигнет насыщения.
  • f - Относительная влажность воздуха - влажноcть воздуха, измеренная на высоте 2 м над землей.
  • Te - Эффективная температура - температура, которую ощущает одетый по сезону человек в тени. Характеристика душности погоды. При расчете учитывается влияние влажности воздуха и скорости ветра на теплоощущения человека.
  • Tes - Эффективная температура на солнце - температура, которую ощущает человек, с поправкой на солнечный нагрев. Характеристика знойности погоды. Зависит от высоты солнца над горизонтом, облачности и скорости ветра. Ночью, в пасмурную погоду, а также при ветре 12 м/с и более поправка равна нулю.
  • P - Атмосферное давление - приведенное к уровню моря атмосферное давление.
  • Po - Атмосферное давление - измеренное на уровне метеостанции атмосферное давление.
  • Tmin - Минимальная температура - минимум температуры воздуха на высоте 2 м над землей.
  • Tmax - Максимальная температура - максимум температуры воздуха на высоте 2 м над землей.
  • R - Количество осадков - Количество выпавших осадков за период времени, мм. При наведении курсора мыши на число - период времени, за который выпало указанное количество осадков.
  • R24 - Количество осадков - Количество выпавших осадков за 24 часа, мм.
  • S - Снежный покров - Высота снежного покрова, см. При наведении курсора мыши на число - состояние снежного покрова и степень покрытия местности в баллах.